Back to catalog

STARLINK-36918

AliveCommunicationsVLEO
NORAD 67956·PAYLOAD·🇺🇸 United States

Launched Feb 24, 2026 from Vandenberg Space Force Base

Loading…

Next Passes (next 24 hours)

TLE

FreshSource: CelesTrak SupGP

Epoch: Sep 14, 2026, 14:40 UTC

1 67956C 26037AA  26257.61159722 -.00010985  00000+0 -39802-3 0  2572
2 67956  42.9999 203.7338 0001223 252.6429 135.6206 15.27572313    11

Track STARLINK-36918 in real time with AllMySat

Download on the App Store